Terug naar catalogus

COSMOS 1577

ActiefNavigatiePO
NORAD 15077·PAYLOAD·🇷🇺 Russia

Gelanceerd Jun 27, 1984 vanaf Plesetsk Cosmodrome

Loading…

Volgende Passages (komende 24 uur)

TLE

VersSource: Space-Track

Epoch: Sep 14, 2026, 16:03 UTC

1 15077U 84067A   26257.66917551  .00000065  00000-0  51010-4 0  9999
2 15077  82.9582 140.1093 0036977 105.7698 283.5804 13.75685194865785

Volg COSMOS 1577 in realtime met AllMySat

Download on the App Store